H1 CPF 2 NER 2023 1 24 9 024 01 glonass137 H2 1705501 9137 42939 2023 1 24 0 0 0 2023 1 27 23 45 0 900 1 1 0 0 0 1 H9 10 0 59968 0.00000 0 -8936653.441 -7451565.979 22702451.442 10 0 59968 900.00000 0 -8047679.488 -10061653.907 22016802.017 10 0 59968 1800.00000 0 -7376681.493 -12621935.984 20903657.325 10 0 59968 2700.00000 0 -6922820.257 -15065015.620 19384569.735 10 0 59968 3600.00000 0 -6673285.804 -17326150.386 17488978.818 10 0 59968 4500.00000 0 -6604004.149 -19345761.329 15253645.961 10 0 59968 5400.00000 0 -6680831.330 -21071741.155 12721945.992 10 0 59968 6300.00000 0 -6861184.187 -22461465.273 9943028.884 10 0 59968 7200.00000 0 -7096038.876 -23483421.714 6970867.350 10 0 59968 8100.00000 0 -7332212.386 -24118391.745 3863208.547 10 0 59968 9000.00000 0 -7514830.107 -24360131.654 680450.215 10 0 59968 9900.00000 0 -7589874.440 -24215527.075 -2515536.573 10 0 59968 10800.00000 0 -7506705.708 -23704213.471 -5662614.726 10 0 59968 11700.00000 0 -7220447.716 -22857678.945 -8699594.390 10 0 59968 12600.00000 0 -6694135.923 -21717887.462 -11567427.806 10 0 59968 13500.00000 0 -5900536.202 -20335480.911 -14210361.855 10 0 59968 14400.00000 0 -4823556.205 -18767636.102 -16577025.357 10 0 59968 15300.00000 0 -3459188.620 -17075667.385 -18621429.564 10 0 59968 16200.00000 0 -1815945.480 -15322476.039 -20303862.276 10 0 59968 17100.00000 0 85235.797 -13569953.769 -21591658.319 10 0 59968 18000.00000 0 2211611.681 -11876449.331 -22459831.652 10 0 59968 18900.00000 0 4519752.097 -10294404.262 -22891557.311 10 0 59968 19800.00000 0 6957114.378 -8868256.279 -22878494.290 10 0 59968 20700.00000 0 9464006.677 -7632697.434 -22420943.572 10 0 59968 21600.00000 0 11975859.756 -6611359.028 -21527838.667 10 0 59968 22500.00000 0 14425713.219 -5815977.258 -20216569.084 10 0 59968 23400.00000 0 16746813.308 -5246073.380 -18512640.305 10 0 59968 24300.00000 0 18875214.685 -4889160.623 -16449176.863 10 0 59968 25200.00000 0 20752278.425 -4721467.961 -14066278.026 10 0 59968 26100.00000 0 22326962.584 -4709149.268 -11410238.461 10 0 59968 27000.00000 0 23557810.311 -4809925.960 -8532648.846 10 0 59968 27900.00000 0 24414552.980 -4975093.056 -5489393.746 10 0 59968 28800.00000 0 24879261.805 -5151803.291 -2339566.208 10 0 59968 29700.00000 0 24947000.266 -5285532.171 855679.775 10 0 59968 30600.00000 0 24625950.539 -5322619.286 4034316.555 10 0 59968 31500.00000 0 23937009.140 -5212777.923 7134646.596 10 0 59968 32400.00000 0 22912869.237 -4911466.446 10096499.160 10 0 59968 33300.00000 0 21596628.550 -4382020.731 12862396.611 10 0 59968 34200.00000 0 20039981.541 -3597457.072 15378667.625 10 0 59968 35100.00000 0 18301071.885 -2541868.872 17596485.858 10 0 59968 36000.00000 0 16442095.197 -1211357.492 19472814.210 10 0 59968 36900.00000 0 14526752.242 385542.808 20971236.712 10 0 59968 37800.00000 0 12617658.821 2227964.807 22062662.409 10 0 59968 38700.00000 0 10773820.068 4283330.240 22725888.058 10 0 59968 39600.00000 0 9048274.057 6508469.072 22948009.120 10 0 59968 40500.00000 0 7486002.404 8851190.878 22724671.356 10 0 59968 41400.00000 0 6122194.293 11252244.286 22060158.204 10 0 59968 42300.00000 0 4980935.745 13647584.203 20967312.072 10 0 59968 43200.00000 0 4074378.145 15970853.646 19467290.697 10 0 59968 44100.00000 0 3402420.201 18155977.855 17589162.672 10 0 59968 45000.00000 0 2952916.071 20139763.313 15369349.329 10 0 59968 45900.00000 0 2702400.426 21864393.791 12850923.034 10 0 59968 46800.00000 0 2617299.482 23279719.439 10082774.870 10 0 59968 47700.00000 0 2655576.537 24345243.177 7118667.347 10 0 59968 48600.00000 0 2768742.071 25031721.092 4016190.279 10 0 59968 49500.00000 0 2904142.916 25322309.477 835640.060 10 0 59968 50400.00000 0 3007432.952 25213210.083 -2361155.568 10 0 59968 51300.00000 0 3025119.936 24713786.296 -5512043.948 10 0 59968 52200.00000 0 2907079.694 23846145.217 -8555761.069 10 0 59968 53100.00000 0 2608930.173 22644203.293 -11433127.882 10 0 59968 54000.00000 0 2094163.802 21152274.958 -14088205.461 10 0 59968 54900.00000 0 1335946.878 19423243.872 -16469385.987 10 0 59968 55800.00000 0 318508.882 17516393.947 -18530397.935 10 0 59968 56700.00000 0 -961937.941 15494991.499 -20231205.775 10 0 59968 57600.00000 0 -2496788.455 13423720.094 -21538786.816 10 0 59968 58500.00000 0 -4265162.170 11366075.637 -22427770.318 10 0 59968 59400.00000 0 -6234544.388 9381830.515 -22880926.927 10 0 59968 60300.00000 0 -8361925.001 7524672.389 -22889499.401 10 0 59968 61200.00000 0 -10595388.056 5840115.677 -22453368.704 10 0 59968 62100.00000 0 -12876086.488 4363772.027 -21581052.632 10 0 59968 63000.00000 0 -15140520.290 3120050.927 -20289537.316 10 0 59968 63900.00000 0 -17323023.723 2121343.517 -18603944.977 10 0 59968 64800.00000 0 -19358358.399 1367722.377 -16557044.412 10 0 59968 65700.00000 0 -21184304.579 847168.484 -14188613.576 10 0 59968 66600.00000 0 -22744142.931 536314.461 -11544666.482 10 0 59968 67500.00000 0 -23988923.473 401671.637 -8676559.259 10 0 59968 68400.00000 0 -24879427.173 401288.109 -5639992.586 10 0 59968 69300.00000 0 -25387738.379 486766.950 -2493929.858 10 0 59968 70200.00000 0 -25498362.543 605558.511 700547.861 10 0 59968 71100.00000 0 -25208842.631 703429.288 3881427.741 10 0 59968 72000.00000 0 -24529848.639 727002.377 6986968.682 10 0 59968 72900.00000 0 -23484736.729 626261.599 9956898.888 10 0 59968 73800.00000 0 -22108596.634 356912.987 12733584.140 10 0 59968 74700.00000 0 -20446827.457 -117496.646 15263144.052 10 0 59968 75600.00000 0 -18553301.522 -823793.957 17496494.778 10 0 59968 76500.00000 0 -16488193.061 -1777802.046 19390298.238 10 0 59968 77400.00000 0 -14315562.279 -2983430.899 20907799.793 10 0 59968 78300.00000 0 -12100795.346 -4432274.392 22019538.645 10 0 59968 79200.00000 0 -9908006.534 -6103731.909 22703917.639 10 0 59968 80100.00000 0 -7797510.215 -7965650.686 22947621.845 10 0 59968 81000.00000 0 -5823467.265 -9975463.412 22745878.068 10 0 59968 81900.00000 0 -4031803.096 -12081774.958 22102550.328 10 0 59968 82800.00000 0 -2458483.272 -14226333.410 21030069.289 10 0 59968 83700.00000 0 -1128217.767 -16346304.417 19549196.619 10 0 59968 84600.00000 0 -53647.158 -18376755.111 17688628.246 10 0 59968 85500.00000 0 764955.939 -20253244.708 15484443.542 10 0 59969 0.00000 0 1339458.350 -21914414.038 12979410.570 10 0 59969 900.00000 0 1693121.250 -23304466.841 10222158.851 10 0 59969 1800.00000 0 1859369.736 -24375436.767 7266238.592 10 0 59969 2700.00000 0 1880130.587 -25089147.784 4169079.902 10 0 59969 3600.00000 0 1803808.228 -25418783.084 990875.462 10 0 59969 4500.00000 0 1682985.566 -25349996.979 -2206592.670 10 0 59969 5400.00000 0 1571947.753 -24881522.471 -5361158.594 10 0 59969 6300.00000 0 1524134.628 -24025248.479 -8411486.424 10 0 59969 7200.00000 0 1589630.734 -22805763.209 -11298268.065 10 0 59969 8100.00000 0 1812800.164 -21259382.731 -13965380.958 10 0 59969 9000.00000 0 2230167.375 -19432705.547 -16360982.716 10 0 59969 9900.00000 0 2868634.509 -17380753.959 -18438520.944 10 0 59969 10800.00000 0 3744111.466 -15164780.308 -20157638.465 10 0 59969 11700.00000 0 4860617.359 -12849830.077 -21484956.452 10 0 59969 12600.00000 0 6209891.994 -10502163.812 -22394720.495 10 0 59969 13500.00000 0 7771534.497 -8186645.448 -22869297.499 10 0 59969 14400.00000 0 9513664.010 -5964205.653 -22899514.254 10 0 59969 15300.00000 0 11394075.467 -3889485.433 -22484831.587 10 0 59969 16200.00000 0 13361842.752 -2008757.398 -21633351.130 10 0 59969 17100.00000 0 15359302.842 -358210.285 -20361654.858 10 0 59969 18000.00000 0 17324338.575 1037332.917 -18694480.655 10 0 59969 18900.00000 0 19192865.141 2165211.125 -16664240.201 10 0 59969 19800.00000 0 20901416.872 3025203.795 -14310388.439 10 0 59969 20700.00000 0 22389726.470 3629281.832 -11678656.695 10 0 59969 21600.00000 0 23603189.059 4000842.695 -8820164.194 10 0 59969 22500.00000 0 24495108.122 4173463.181 -5790425.067 10 0 59969 23400.00000 0 25028629.330 4189223.624 -2648270.135 10 0 59969 24300.00000 0 25178281.290 4096675.208 545295.557 10 0 59969 25200.00000 0 24931058.644 3948537.097 3728277.143 10 0 59969 26100.00000 0 24287002.096 3799221.394 6838893.078 10 0 59969 27000.00000 0 23259251.035 3702291.146 9816773.478 10 0 59969 27900.00000 0 21873566.510 3707959.309 12604130.292 10 0 59969 28800.00000 0 20167344.462 3860734.782 15146876.537 10 0 59969 29700.00000 0 18188160.376 4197315.287 17395673.018 10 0 59969 30600.00000 0 15991905.962 4744816.427 19306882.482 10 0 59969 31500.00000 0 13640595.362 5519412.034 20843413.088 10 0 59969 32400.00000 0 11199931.916 6525443.668 21975435.289 10 0 59969 33300.00000 0 8736736.265 7755037.498 22680958.741 10 0 59969 34200.00000 0 6316342.188 9188245.600 22946258.438 10 0 59969 35100.00000 0 4000067.678 10793706.904 22766142.111 10 0 59969 36000.00000 0 1842865.582 12529801.376 22144053.789 10 0 59969 36900.00000 0 -108749.353 14346250.423 21092011.345 10 0 59969 37800.00000 0 -1818411.629 16186097.887 19630378.874 10 0 59969 38700.00000 0 -3261183.925 17987989.920 17787477.724 10 0 59969 39600.00000 0 -4424351.230 19688659.295 15599043.012 10 0 59969 40500.00000 0 -5307697.770 21225510.840 13107535.447 10 0 59969 41400.00000 0 -5923255.871 22539200.073 10361321.080 10 0 59969 42300.00000 0 -6294538.003 23576096.906 7413734.437 10 0 59969 43200.00000 0 -6455285.055 24290530.794 4322042.879 10 0 59969 44100.00000 0 -6447784.348 24646722.517 1146332.288 10 0 59969 45000.00000 0 -6320829.204 24620320.734 -2051664.011 10 0 59969 45900.00000 0 -6127407.198 24199477.976 -5209769.839 10 0 59969 46800.00000 0 -5922215.824 23385420.122 -8266580.237 10 0 59969 47700.00000 0 -5759111.728 22192484.797 -11162660.641 10 0 59969 48600.00000 0 -5688602.427 20647626.623 -13841707.151 10 0 59969 49500.00000 0 -5755487.638 18789409.781 -16251644.788 10 0 59969 50400.00000 0 -5996750.828 16666529.978 -18345641.907 10 0 59969 51300.00000 0 -6439790.896 14335927.691 -20083020.961 10 0 59969 52200.00000 0 -7101069.301 11860571.556 -21430047.916 10 0 59969 53100.00000 0 -7985230.320 9307004.508 -22360585.274 10 0 59969 54000.00000 0 -9084732.008 6742754.885 -22856596.430 10 0 59969 54900.00000 0 -10380003.928 4233720.054 -22908492.065 10 0 59969 55800.00000 0 -11840125.515 1841631.080 -22515312.336 10 0 59969 56700.00000 0 -13423997.124 -378296.803 -21684741.751 10 0 59969 57600.00000 0 -15081955.179 -2379431.072 -20432956.750 10 0 59969 58500.00000 0 -16757764.211 -4125421.190 -18784309.071 10 0 59969 59400.00000 0 -18390902.804 -5591460.803 -16770851.102 10 0 59969 60300.00000 0 -19919048.087 -6765061.632 -14431712.293 10 0 59969 61200.00000 0 -21280654.955 -7646308.198 -11812338.578 10 0 59969 62100.00000 0 -22417522.136 -8247584.237 -8963609.441 10 0 59969 63000.00000 0 -23277237.606 -8592783.760 -5940849.570 10 0 59969 63900.00000 0 -23815400.752 -8716041.248 -2802754.321 10 0 59969 64800.00000 0 -23997527.957 -8660035.689 389750.120 10 0 59969 65700.00000 0 -23800561.456 -8473941.004 3574689.638 10 0 59969 66600.00000 0 -23213917.927 -8211110.225 6690244.925 10 0 59969 67500.00000 0 -22240032.602 -7926591.954 9675950.580 10 0 59969 68400.00000 0 -20894375.766 -7674584.543 12473867.127 10 0 59969 69300.00000 0 -19204940.686 -7505935.929 15029703.184 10 0 59969 70200.00000 0 -17211224.000 -7465795.007 17293866.114 10 0 59969 71100.00000 0 -14962740.803 -7591513.882 19222421.065 10 0 59969 72000.00000 0 -12517135.855 -7910889.704 20777940.144 10 0 59969 72900.00000 0 -9937969.083 -8440820.449 21930225.771 10 0 59969 73800.00000 0 -7292266.829 -9186431.666 22656894.658 10 0 59969 74700.00000 0 -4647939.892 -10140711.478 22943811.522 10 0 59969 75600.00000 0 -2071174.819 -11284669.988 22785364.398 10 0 59969 76500.00000 0 376094.172 -12588017.328 22184576.328 10 0 59969 77400.00000 0 2638528.477 -14010333.034 21153051.083 10 0 59969 78300.00000 0 4669447.156 -15502678.826 19710753.605 10 0 59969 79200.00000 0 6432522.836 -17009588.312 17885628.832 10 0 59969 80100.00000 0 7903041.612 -18471351.118 15713065.596 10 0 59969 81000.00000 0 9068675.147 -19826496.373 13235215.243 10 0 59969 81900.00000 0 9929733.428 -21014371.742 10500177.500 10 0 59969 82800.00000 0 10498888.284 -21977709.789 7561068.847 10 0 59969 83700.00000 0 10800380.021 -22665073.568 4474991.224 10 0 59969 84600.00000 0 10868741.297 -23033078.088 1301920.982 10 0 59969 85500.00000 0 10747092.881 -23048293.399 -1896460.008 10 0 59970 0.00000 0 10485084.112 -22688748.397 -5057967.666 10 0 59970 900.00000 0 10136565.894 -21944970.858 -8121131.081 10 0 59970 1800.00000 0 9757095.961 -20820519.602 -11026391.330 10 0 59970 2700.00000 0 9401382.437 -19331985.020 -13717265.391 10 0 59970 3600.00000 0 9120775.050 -17508457.678 -16141447.682 10 0 59970 4500.00000 0 8960910.774 -15390486.713 -18251829.064 10 0 59970 5400.00000 0 8959614.076 -13028571.313 -20007413.047 10 0 59970 6300.00000 0 9145140.978 -10481248.131 -21374111.479 10 0 59970 7200.00000 0 9534841.403 -7812854.285 -22325404.469 10 0 59970 8100.00000 0 10134296.478 -5091058.994 -22842852.183 10 0 59970 9000.00000 0 10936967.371 -2384266.281 -22916449.065 10 0 59970 9900.00000 0 11924370.634 241003.634 -22544814.083 10 0 59970 10800.00000 0 13066772.902 2722646.019 -21735213.759 10 0 59970 11700.00000 0 14324376.025 5005311.989 -20503417.806 10 0 59970 12600.00000 0 15648943.136 7042461.187 -18873390.360 10 0 59970 13500.00000 0 16985797.660 8798042.537 -16876822.798 10 0 59970 14400.00000 0 18276111.633 10247734.383 -14552517.103 10 0 59970 15300.00000 0 19459387.431 11379693.632 -11945631.616 10 0 59970 16200.00000 0 20476028.833 12194784.051 -9106803.634 10 0 59970 17100.00000 0 21269893.454 12706275.629 -6091165.762 10 0 59970 18000.00000 0 21790719.183 12939029.013 -2957275.090 10 0 59970 18900.00000 0 21996322.513 12928200.588 234023.943 10 0 59970 19800.00000 0 21854476.057 12717523.908 3420780.853 10 0 59970 20700.00000 0 21344386.030 12357240.873 6541141.378 10 0 59970 21600.00000 0 20457707.226 11901770.746 9534547.232 10 0 59970 22500.00000 0 19199052.391 11407215.988 12342909.931 10 0 59970 23400.00000 0 17585974.149 10928810.608 14911735.848 10 0 59970 24300.00000 0 15648419.630 10518418.975 17191180.788 10 0 59970 25200.00000 0 13427679.970 10222190.724 19137013.895 10 0 59970 26100.00000 0 10974877.827 10078470.669 20711472.552 10 0 59970 27000.00000 0 8349055.194 10116051.820 21883992.175 10 0 59970 27900.00000 0 5614940.183 10352845.119 22631797.267 10 0 59970 28800.00000 0 2840484.752 10795022.068 22940342.658 10 0 59970 29700.00000 0 94274.656 11436666.644 22803596.709 10 0 59970 30600.00000 0 -2557081.906 12259951.695 22224161.083 10 0 59970 31500.00000 0 -5051479.463 13235833.104 21213224.604 10 0 59970 32400.00000 0 -7333650.383 14325233.431 19790351.762 10 0 59970 33300.00000 0 -9357213.780 15480666.221 17983109.345 10 0 59970 34200.00000 0 -11086353.699 16648233.574 15826537.757 10 0 59970 35100.00000 0 -12497057.385 17769913.747 13362476.521 10 0 59970 36000.00000 0 -13577862.595 18786043.048 10638756.309 10 0 59970 36900.00000 0 -14330083.280 19637887.779 7708272.689 10 0 59970 37800.00000 0 -14767504.841 20270197.758 4627959.202 10 0 59970 38700.00000 0 -14915562.409 20633633.417 1457679.677 10 0 59970 39600.00000 0 -14810037.491 20686963.418 -1740938.456 10 0 59970 40500.00000 0 -14495328.734 20398939.227 -4905706.695 10 0 59970 41400.00000 0 -14022370.687 19749766.618 -7975089.846 10 0 59970 42300.00000 0 -13446289.391 18732111.012 -10889407.857 10 0 59970 43200.00000 0 -12823894.825 17351593.345 -13592001.017 10 0 59970 44100.00000 0 -12211117.033 15626754.711 -16030335.309 10 0 59970 45000.00000 0 -11660495.055 13588490.459 -18157025.933 10 0 59970 45900.00000 0 -11218825.286 11278976.889 -19930758.953 10 0 59970 46800.00000 0 -10925068.972 8750134.867 -21317093.218 10 0 59970 47700.00000 0 -10808607.317 6061694.168 -22289127.185 10 0 59970 48600.00000 0 -10887917.817 3278938.824 -22828018.147 10 0 59970 49500.00000 0 -11169727.520 470226.943 -22923344.263 10 0 59970 50400.00000 0 -11648678.739 -2295612.324 -22573302.855 10 0 59970 51300.00000 0 -12307521.144 -4951897.083 -21784741.562 10 0 59970 52200.00000 0 -13117822.053 -7436618.203 -20573022.059 10 0 59970 53100.00000 0 -14041165.004 -9694767.971 -18961719.145 10 0 59970 54000.00000 0 -15030786.210 -11680376.039 -16982161.077 10 0 59970 54900.00000 0 -16033580.114 -13358169.117 -14672819.956 10 0 59970 55800.00000 0 -16992389.742 -14704786.419 -12078563.875 10 0 59970 56700.00000 0 -17848485.501 -15709501.457 -9249785.151 10 0 59970 57600.00000 0 -18544128.059 -16374421.337 -6241421.434 10 0 59970 58500.00000 0 -19025107.279 -16714156.501 -3111888.679 10 0 59970 59400.00000 0 -19243150.103 -16754976.096 78053.266 10 0 59970 60300.00000 0 -19158095.686 -16533485.606 3266480.323 10 0 59970 61200.00000 0 -18739745.800 -16094883.481 6391505.966 10 0 59970 62100.00000 0 -17969312.183 -15490871.047 9392481.615 10 0 59970 63000.00000 0 -16840399.404 -14777304.491 12211172.228 10 0 59970 63900.00000 0 -15359481.327 -14011688.384 14792884.194 10 0 59970 64800.00000 0 -13545850.456 -13250616.664 17087523.771 10 0 59970 65700.00000 0 -11431041.456 -12547269.017 19050565.803 10 0 59970 66600.00000 0 -9057752.055 -11949068.048 20643914.279 10 0 59970 67500.00000 0 -6478305.342 -11495595.695 21836638.547 10 0 59970 68400.00000 0 -3752716.465 -11216856.366 22605571.402 10 0 59970 69300.00000 0 -946443.016 -11131959.683 22935757.869 10 0 59970 70200.00000 0 1872088.540 -11248278.143 22820746.322 10 0 59970 71100.00000 0 4634078.875 -11561115.213 22262716.356 10 0 59970 72000.00000 0 7272967.537 -12053898.085 21272440.844 10 0 59970 72900.00000 0 9726953.007 -12698887.419 19869082.512 10 0 59970 73800.00000 0 11941317.313 -13458374.838 18079828.414 10 0 59970 74700.00000 0 13870459.245 -14286318.364 15939368.675 10 0 59970 75600.00000 0 15479552.179 -15130347.567 13489228.867 10 0 59970 76500.00000 0 16745757.877 -15934054.383 10776968.218 10 0 59970 77400.00000 0 17658946.033 -16639473.228 7855258.715 10 0 59970 78300.00000 0 18221889.888 -17189645.741 4780862.613 10 0 59970 79200.00000 0 18449930.235 -17531161.556 1613528.154 10 0 59970 80100.00000 0 18370122.511 -17616567.164 -1585174.814 10 0 59970 81000.00000 0 18019903.564 -17406540.284 -4753056.222 10 0 59970 81900.00000 0 17445335.058 -16871736.879 -7828520.183 10 0 59970 82800.00000 0 16698998.482 -15994231.762 -10751768.044 10 0 59970 83700.00000 0 15837631.455 -14768490.883 -13465965.966 10 0 59970 84600.00000 0 14919605.945 -13201833.265 -15918353.743 10 0 59970 85500.00000 0 14002355.585 -11314362.154 -18061272.819 10 0 59971 0.00000 0 13139861.274 -9138367.605 -19853093.202 10 0 59971 900.00000 0 12380300.979 -6717223.519 -21259022.188 10 0 59971 1800.00000 0 11763964.093 -4103827.573 -22251777.110 10 0 59971 2700.00000 0 11321516.527 -1358644.673 -22812112.653 10 0 59971 3600.00000 0 11072690.477 1452562.287 -22929190.516 10 0 59971 4500.00000 0 11025453.110 4261221.603 -22600785.783 10 0 59971 5400.00000 0 11175688.732 6998558.836 -21833326.233 10 0 59971 6300.00000 0 11507407.327 9598212.197 -20641764.171 10 0 59971 7200.00000 0 11993470.257 11998749.315 -19049283.421 10 0 59971 8100.00000 0 12596802.211 14145981.643 -17086847.203 10 0 59971 9000.00000 0 13272038.108 15994981.183 -14792595.571 10 0 59971 9900.00000 0 13967535.384 17511716.509 -12211103.969 10 0 59971 10800.00000 0 14627666.696 18674240.992 -9392517.125 10 0 59971 11700.00000 0 15195296.233 19473384.690 -6391574.955 10 0 59971 12600.00000 0 15614335.016 19912922.125 -3266549.371 10 0 59971 13500.00000 0 15832267.171 20009210.057 -78112.674 10 0 59971 14400.00000 0 15802540.279 19790311.556 3111840.402 10 0 59971 15300.00000 0 15486718.634 19294644.194 6241393.891 10 0 59971 16200.00000 0 14856308.133 18569210.097 9249811.554 10 0 59971 17100.00000 0 13894175.359 17667483.058 12078714.186 10 0 59971 18000.00000 0 12595500.471 16647042.162 14673210.306 10 0 59971 18900.00000 0 10968223.083 15567051.847 16982958.461 10 0 59971 19800.00000 0 9032961.474 14485694.534 18963140.742 10 0 59971 20700.00000 0 6822407.518 13457663.703 20575329.017 10 0 59971 21600.00000 0 4380221.468 12531822.557 21788227.556 10 0 59971 22500.00000 0 1759471.452 11749126.272 22578278.146 10 0 59971 23400.00000 0 -979318.587 11140894.693 22930116.399 10 0 59971 24300.00000 0 -3770432.648 10727507.622 22836870.729 10 0 59971 25200.00000 0 -6545445.356 10517577.177 22300298.313 10 0 59971 26100.00000 0 -9235821.665 10507631.839 21330755.276 10 0 59971 27000.00000 0 -11775526.714 10682325.449 19947001.347 10 0 59971 27900.00000 0 -14103538.386 11015162.547 18175842.157 10 0 59971 28800.00000 0 -16166158.803 11469709.770 16051615.447 10 0 59971 29700.00000 0 -17919029.162 12001242.623 13615530.375 10 0 59971 30600.00000 0 -19328764.327 12558758.462 10914871.989 10 0 59971 31500.00000 0 -20374139.212 13087270.881 8002085.782 10 0 59971 32400.00000 0 -21046777.604 13530288.548 4933759.716 10 0 59971 33300.00000 0 -21351314.847 13832373.433 1769523.420 10 0 59971 34200.00000 0 -21305027.876 13941669.681 -1429113.833 10 0 59971 35100.00000 0 -20936948.634 13812295.393 -4599963.316 10 0 59971 36000.00000 0 -20286498.777 13406495.164 -7681371.262 10 0 59971 36900.00000 0 -19401703.863 12696461.283 -10613423.093 10 0 59971 37800.00000 0 -18337063.072 11665745.508 -13339113.328 10 0 59971 38700.00000 0 -17151165.033 10310200.648 -15805457.817 10 0 59971 39600.00000 0 -15904150.941 8638411.201 -17964526.193 10 0 59971 40500.00000 0 -14655132.432 6671593.880 -19774374.273 10 0 59971 41400.00000 0 -13459673.265 4442971.212 -21199858.354 10 0 59971 42300.00000 0 -12367440.924 1996643.612 -22213315.758 10 0 59971 43200.00000 0 -11420126.734 -613993.722 -22795098.891 10 0 59971 44100.00000 0 -10649721.526 -3328223.808 -22933952.887 10 0 59971 45000.00000 0 -10077218.693 -6080289.215 -22627230.046 10 0 59971 45900.00000 0 -9711798.414 -8801887.523 -21880937.322 10 0 59971 46800.00000 0 -9550526.476 -11424777.828 -20709616.281 10 0 59971 47700.00000 0 -9578579.567 -13883390.626 -19136058.025 10 0 59971 48600.00000 0 -9769986.777 -16117333.308 -17190858.670 10 0 59971 49500.00000 0 -10088855.456 -18073687.828 -14911823.887 10 0 59971 50400.00000 0 -10491029.191 -19709005.633 -12343233.953 10 0 59971 51300.00000 0 -10926107.597 -20990917.585 -9534983.378 10 0 59971 52200.00000 0 -11339742.271 -21899292.519 -6541611.676 10 0 59971 53100.00000 0 -11676111.693 -22426896.918 -3421244.068 10 0 59971 54000.00000 0 -11880470.208 -22579529.014 -234462.710 10 0 59971 54900.00000 0 -11901663.075 -22375622.630 2956869.535 10 0 59971 55800.00000 0 -11694500.967 -21845338.220 6090809.717 10 0 59971 56700.00000 0 -11221893.225 -21029180.146 9106536.318 10 0 59971 57600.00000 0 -10456649.304 -19976198.924 11945528.252 10 0 59971 58500.00000 0 -9382871.872 -18741854.555 14552698.341 10 0 59971 59400.00000 0 -7996882.136 -17385631.037 16877459.408 10 0 59971 60300.00000 0 -6307637.622 -15968502.417 18874702.565 10 0 59971 61200.00000 0 -4336623.839 -14550356.659 20505669.057 10 0 59971 62100.00000 0 -2117223.172 -13187485.159 21738699.254 10 0 59971 63000.00000 0 306413.958 -11930242.740 22549844.766 10 0 59971 63900.00000 0 2880949.946 -10820975.662 22923332.260 10 0 59971 64800.00000 0 5545828.466 -9892303.899 22851870.304 10 0 59971 65700.00000 0 8235550.118 -9165829.069 22336793.418 10 0 59971 66600.00000 0 10882161.922 -8651321.721 21388040.427 10 0 59971 67500.00000 0 13417858.457 -8346421.651 20023967.183 10 0 59971 68400.00000 0 15777587.492 -8236863.605 18270996.719 10 0 59971 69300.00000 0 17901552.523 -8297218.760 16163112.909 10 0 59971 70200.00000 0 19737508.567 -8492120.740 13741206.694 10 0 59971 71100.00000 0 21242755.841 -8777924.495 11052286.808 10 0 59971 72000.00000 0 22385748.255 -9104728.011 8148569.781 10 0 59971 72900.00000 0 23147249.501 -9418671.266 5086466.497 10 0 59971 73800.00000 0 23520988.375 -9664414.916 1925484.922 10 0 59971 74700.00000 0 23513785.884 -9787693.250 -1272929.484 10 0 59971 75600.00000 0 23145149.021 -9737832.646 -4446592.658 10 0 59971 76500.00000 0 22446348.586 -9470127.953 -7533796.230 10 0 59971 77400.00000 0 21459020.316 -8947975.175 -10474512.812 10 0 59971 78300.00000 0 20233348.819 -8144669.119 -13211568.145 10 0 59971 79200.00000 0 18825911.354 -7044788.865 -15691756.678 10 0 59971 80100.00000 0 17297272.876 -5645111.444 -17866878.414 10 0 59971 81000.00000 0 15709434.015 -3955014.135 -19694676.644 10 0 59971 81900.00000 0 14123239.644 -1996347.393 -21139658.388 10 0 59971 82800.00000 0 12595857.028 197217.236 -22173781.795 10 0 59971 83700.00000 0 11178429.288 2581337.790 -22776997.592 10 0 59971 84600.00000 0 9914002.198 5102603.963 -22937634.539 10 0 59971 85500.00000 0 8835810.610 7700524.470 -22652621.930 99